Time,TemperatureF,DewpointF,PressureIn,WindDirection,WindDirectionDegrees,WindSpeedMPH,WindSpeedGustMPH,Humidity,HourlyPrecipIn,Conditions,Clouds,dailyrainin,SoftwareType,DateUTC
2013-03-15 00:00:00,13.1,8.4,30.15,NE,50,0.0,0.0,81,0.00,,,0.00,Wunderground v.1.15,2013-03-15 04:00:00,
2013-03-15 00:05:00,13.2,8.5,30.15,NW,305,0.0,1.0,81,0.00,,,0.00,Wunderground v.1.15,2013-03-15 04:05:00,
2013-03-15 00:09:00,13.2,8.5,30.15,WNW,290,0.0,1.0,81,0.00,,,0.00,Wunderground v.1.15,2013-03-15 04:09:00,
2013-03-15 00:15:00,13.0,8.3,30.15,WNW,294,0.0,0.0,81,0.00,,,0.00,Wunderground v.1.15,2013-03-15 04:15:00,
2013-03-15 00:20:00,12.9,8.2,30.15,WSW,248,0.0,0.0,81,0.00,,,0.00,Wunderground v.1.15,2013-03-15 04:20:00,
2013-03-15 00:25:00,12.9,8.2,30.16,East,100,0.0,4.0,81,0.00,,,0.00,Wunderground v.1.15,2013-03-15 04:25:00,
2013-03-15 00:31:00,13.0,8.0,30.16,NE,34,1.0,3.0,80,0.00,,,0.00,Wunderground v.1.15,2013-03-15 04:31:00,
2013-03-15 00:36:00,13.0,7.7,30.16,ENE,59,6.0,6.0,79,0.00,,,0.00,Wunderground v.1.15,2013-03-15 04:36:00,
2013-03-15 00:42:00,13.1,7.2,30.16,North,359,1.0,1.0,77,0.00,,,0.00,Wunderground v.1.15,2013-03-15 04:42:00,
2013-03-15 00:48:00,13.2,7.0,30.15,ESE,118,0.0,3.0,76,0.00,,,0.00,Wunderground v.1.15,2013-03-15 04:48:00,
2013-03-15 00:53:00,13.3,7.1,30.16,NW,305,0.0,3.0,76,0.00,,,0.00,Wunderground v.1.15,2013-03-15 04:53:00,
2013-03-15 00:58:00,13.3,7.1,30.16,WSW,245,0.0,3.0,76,0.00,,,0.00,Wunderground v.1.15,2013-03-15 04:58:00,
2013-03-15 01:04:00,13.3,6.6,30.16,NW,310,0.0,1.0,74,0.00,,,0.00,Wunderground v.1.15,2013-03-15 05:04:00,
2013-03-15 01:09:00,13.2,6.5,30.16,West,281,0.0,2.0,74,0.00,,,0.00,Wunderground v.1.15,2013-03-15 05:09:00,
2013-03-15 01:14:00,13.2,6.5,30.16,NNE,31,1.0,2.0,74,0.00,,,0.00,Wunderground v.1.15,2013-03-15 05:14:00,
2013-03-15 01:19:00,13.2,7.3,30.16,NW,318,1.0,4.0,77,0.00,,,0.00,Wunderground v.1.15,2013-03-15 05:19:00,
2013-03-15 01:25:00,13.1,7.5,30.16,North,1,4.0,4.0,78,0.00,,,0.00,Wunderground v.1.15,2013-03-15 05:25:00,
2013-03-15 01:30:00,13.0,8.0,30.16,SSW,195,0.0,2.0,80,0.00,,,0.00,Wunderground v.1.15,2013-03-15 05:30:00,
2013-03-15 01:36:00,12.9,7.9,30.17,NW,322,1.0,2.0,80,0.00,,,0.00,Wunderground v.1.15,2013-03-15 05:36:00,
2013-03-15 01:41:00,13.0,8.3,30.17,WSW,243,0.0,1.0,81,0.00,,,0.00,Wunderground v.1.15,2013-03-15 05:41:00,
2013-03-15 01:46:00,12.8,8.1,30.17,SSW,205,0.0,1.0,81,0.00,,,0.00,Wunderground v.1.15,2013-03-15 05:46:00,
2013-03-15 01:52:00,12.8,7.8,30.17,West,274,1.0,3.0,80,0.00,,,0.00,Wunderground v.1.15,2013-03-15 05:52:00,
2013-03-15 01:57:00,12.8,7.2,30.17,NNE,17,1.0,4.0,78,0.00,,,0.00,Wunderground v.1.15,2013-03-15 05:57:00,
2013-03-15 02:02:00,12.7,7.4,30.17,WNW,291,0.0,3.0,79,0.00,,,0.00,Wunderground v.1.15,2013-03-15 06:02:00,
2013-03-15 02:07:00,12.6,7.6,30.17,NNE,31,3.0,4.0,80,0.00,,,0.00,Wunderground v.1.15,2013-03-15 06:07:00,
2013-03-15 02:12:00,12.6,7.3,30.17,NNE,16,1.0,5.0,79,0.00,,,0.00,Wunderground v.1.15,2013-03-15 06:12:00,
2013-03-15 02:17:00,12.5,7.2,30.17,ENE,68,0.0,5.0,79,0.00,,,0.00,Wunderground v.1.15,2013-03-15 06:17:00,
2013-03-15 02:23:00,12.5,7.2,30.17,ESE,116,1.0,6.0,79,0.00,,,0.00,Wunderground v.1.15,2013-03-15 06:23:00,
2013-03-15 02:28:00,12.6,7.6,30.17,NNW,338,5.0,6.0,80,0.00,,,0.00,Wunderground v.1.15,2013-03-15 06:28:00,
2013-03-15 02:33:00,12.6,7.3,30.16,NNW,329,2.0,4.0,79,0.00,,,0.00,Wunderground v.1.15,2013-03-15 06:33:00,
2013-03-15 02:38:00,12.5,7.2,30.16,ENE,65,1.0,4.0,79,0.00,,,0.00,Wunderground v.1.15,2013-03-15 06:38:00,
2013-03-15 02:43:00,12.4,7.1,30.16,NNE,30,0.0,3.0,79,0.00,,,0.00,Wunderground v.1.15,2013-03-15 06:43:00,
2013-03-15 02:48:00,12.5,6.9,30.16,North,11,2.0,4.0,78,0.00,,,0.00,Wunderground v.1.15,2013-03-15 06:48:00,
2013-03-15 02:53:00,12.5,6.7,30.16,WNW,294,0.0,3.0,77,0.00,,,0.00,Wunderground v.1.15,2013-03-15 06:53:00,
2013-03-15 02:58:00,12.6,6.5,30.16,NNE,27,3.0,4.0,76,0.00,,,0.00,Wunderground v.1.15,2013-03-15 06:58:00,
2013-03-15 03:03:00,12.6,5.9,30.16,NNW,344,4.0,5.0,74,0.00,,,0.00,Wunderground v.1.15,2013-03-15 07:03:00,
2013-03-15 03:09:00,12.6,5.6,30.16,NNW,348,2.0,5.0,73,0.00,,,0.00,Wunderground v.1.15,2013-03-15 07:09:00,
2013-03-15 03:14:00,12.6,6.2,30.16,ESE,118,0.0,2.0,75,0.00,,,0.00,Wunderground v.1.15,2013-03-15 07:14:00,
2013-03-15 03:19:00,12.6,6.2,30.16,NNE,18,1.0,2.0,75,0.00,,,0.00,Wunderground v.1.15,2013-03-15 07:19:00,
2013-03-15 03:24:00,12.6,5.6,30.16,NE,43,0.0,3.0,73,0.00,,,0.00,Wunderground v.1.15,2013-03-15 07:24:00,
2013-03-15 03:29:00,12.6,5.3,30.15,NW,312,0.0,4.0,72,0.00,,,0.00,Wunderground v.1.15,2013-03-15 07:29:00,
2013-03-15 03:34:00,12.5,5.2,30.15,WNW,284,0.0,1.0,72,0.00,,,0.00,Wunderground v.1.15,2013-03-15 07:34:00,
2013-03-15 03:39:00,12.4,5.1,30.15,NNE,13,5.0,6.0,72,0.00,,,0.00,Wunderground v.1.15,2013-03-15 07:39:00,
2013-03-15 03:44:00,12.4,5.1,30.15,WNW,283,0.0,1.0,72,0.00,,,0.00,Wunderground v.1.15,2013-03-15 07:44:00,
2013-03-15 03:49:00,12.2,4.9,30.15,SE,134,0.0,6.0,72,0.00,,,0.00,Wunderground v.1.15,2013-03-15 07:49:00,
2013-03-15 03:54:00,12.1,5.1,30.15,NNW,342,0.0,2.0,73,0.00,,,0.00,Wunderground v.1.15,2013-03-15 07:54:00,
2013-03-15 03:59:00,12.0,5.3,30.15,NNW,338,0.0,2.0,74,0.00,,,0.00,Wunderground v.1.15,2013-03-15 07:59:00,
2013-03-15 04:04:00,11.9,5.2,30.15,WNW,285,1.0,2.0,74,0.00,,,0.00,Wunderground v.1.15,2013-03-15 08:04:00,
2013-03-15 04:09:00,11.9,5.5,30.15,NE,50,0.0,2.0,75,0.00,,,0.00,Wunderground v.1.15,2013-03-15 08:09:00,
2013-03-15 04:14:00,11.9,5.2,30.15,North,356,0.0,2.0,74,0.00,,,0.00,Wunderground v.1.15,2013-03-15 08:14:00,
2013-03-15 04:19:00,11.8,5.7,30.15,WSW,252,0.0,3.0,76,0.00,,,0.00,Wunderground v.1.15,2013-03-15 08:19:00,
2013-03-15 04:24:00,11.8,5.7,30.15,NNE,15,3.0,4.0,76,0.00,,,0.00,Wunderground v.1.15,2013-03-15 08:24:00,
2013-03-15 04:29:00,11.8,6.3,30.16,NNW,346,0.0,4.0,78,0.00,,,0.00,Wunderground v.1.15,2013-03-15 08:29:00,
2013-03-15 04:34:00,11.7,6.2,30.16,North,358,0.0,1.0,78,0.00,,,0.00,Wunderground v.1.15,2013-03-15 08:34:00,
2013-03-15 04:39:00,11.7,6.2,30.16,NNE,33,0.0,2.0,78,0.00,,,0.00,Wunderground v.1.15,2013-03-15 08:39:00,
2013-03-15 04:44:00,11.6,6.1,30.16,ENE,62,0.0,2.0,78,0.00,,,0.00,Wunderground v.1.15,2013-03-15 08:44:00,
2013-03-15 04:49:00,11.6,6.3,30.16,NW,311,0.0,2.0,79,0.00,,,0.00,Wunderground v.1.15,2013-03-15 08:49:00,
2013-03-15 04:54:00,11.7,6.7,30.15,NNW,338,1.0,1.0,80,0.00,,,0.00,Wunderground v.1.15,2013-03-15 08:54:00,
2013-03-15 04:59:00,11.7,6.7,30.16,North,349,0.0,3.0,80,0.00,,,0.00,Wunderground v.1.15,2013-03-15 08:59:00,
2013-03-15 05:04:00,11.7,6.7,30.16,SW,226,2.0,2.0,80,0.00,,,0.00,Wunderground v.1.15,2013-03-15 09:04:00,
2013-03-15 05:09:00,11.7,6.7,30.15,North,10,4.0,5.0,80,0.00,,,0.00,Wunderground v.1.15,2013-03-15 09:09:00,
2013-03-15 05:14:00,11.6,6.6,30.16,NW,310,0.0,1.0,80,0.00,,,0.00,Wunderground v.1.15,2013-03-15 09:14:00,
2013-03-15 05:19:00,11.5,6.5,30.16,NW,308,0.0,1.0,80,0.00,,,0.00,Wunderground v.1.15,2013-03-15 09:19:00,
2013-03-15 05:24:00,11.5,6.5,30.16,NE,37,0.0,2.0,80,0.00,,,0.00,Wunderground v.1.15,2013-03-15 09:24:00,
2013-03-15 05:29:00,11.5,6.5,30.16,ENE,77,2.0,2.0,80,0.00,,,0.00,Wunderground v.1.15,2013-03-15 09:29:00,
2013-03-15 05:34:00,11.6,6.6,30.16,NW,320,0.0,3.0,80,0.00,,,0.00,Wunderground v.1.15,2013-03-15 09:34:00,
2013-03-15 05:39:00,11.5,6.0,30.16,ESE,105,0.0,3.0,78,0.00,,,0.00,Wunderground v.1.15,2013-03-15 09:39:00,
2013-03-15 05:44:00,11.5,6.0,30.16,NW,326,0.0,2.0,78,0.00,,,0.00,Wunderground v.1.15,2013-03-15 09:44:00,
2013-03-15 05:49:00,11.4,5.9,30.16,West,280,0.0,2.0,78,0.00,,,0.00,Wunderground v.1.15,2013-03-15 09:49:00,
2013-03-15 05:54:00,11.4,5.9,30.15,NNW,336,0.0,4.0,78,0.00,,,0.00,Wunderground v.1.15,2013-03-15 09:54:00,
2013-03-15 05:59:00,11.4,5.9,30.15,NW,319,0.0,4.0,78,0.00,,,0.00,Wunderground v.1.15,2013-03-15 09:59:00,
2013-03-15 06:04:00,11.3,6.1,30.15,SW,221,0.0,2.0,79,0.00,,,0.00,Wunderground v.1.15,2013-03-15 10:04:00,
2013-03-15 06:09:00,11.3,6.1,30.15,East,101,0.0,2.0,79,0.00,,,0.00,Wunderground v.1.15,2013-03-15 10:09:00,
2013-03-15 06:14:00,11.1,5.6,30.15,ESE,102,0.0,0.0,78,0.00,,,0.00,Wunderground v.1.15,2013-03-15 10:14:00,
2013-03-15 06:19:00,11.0,6.0,30.16,South,181,0.0,1.0,80,0.00,,,0.00,Wunderground v.1.15,2013-03-15 10:19:00,
2013-03-15 06:24:00,10.9,5.9,30.16,South,181,0.0,0.0,80,0.00,,,0.00,Wunderground v.1.15,2013-03-15 10:24:00,
2013-03-15 06:30:00,11.0,6.0,30.16,North,352,0.0,0.0,80,0.00,,,0.00,Wunderground v.1.15,2013-03-15 10:30:00,
2013-03-15 06:35:00,11.0,5.8,30.16,WNW,290,1.0,3.0,79,0.00,,,0.00,Wunderground v.1.15,2013-03-15 10:35:00,
2013-03-15 06:40:00,11.0,6.0,30.16,WNW,284,0.0,0.0,80,0.00,,,0.00,Wunderground v.1.15,2013-03-15 10:40:00,
2013-03-15 06:45:00,11.0,5.8,30.16,SE,132,0.0,1.0,79,0.00,,,0.00,Wunderground v.1.15,2013-03-15 10:45:00,
2013-03-15 06:50:00,11.1,6.1,30.15,NNW,338,0.0,1.0,80,0.00,,,0.00,Wunderground v.1.15,2013-03-15 10:50:00,
2013-03-15 06:55:00,11.2,6.0,30.15,NNE,22,1.0,4.0,79,0.00,,,0.00,Wunderground v.1.15,2013-03-15 10:55:00,
2013-03-15 07:00:00,11.3,6.1,30.15,NNW,342,0.0,1.0,79,0.00,,,0.00,Wunderground v.1.15,2013-03-15 11:00:00,
2013-03-15 07:05:00,11.1,5.9,30.15,NNW,342,0.0,1.0,79,0.00,,,0.00,Wunderground v.1.15,2013-03-15 11:05:00,
2013-03-15 07:10:00,11.0,6.0,30.15,NNW,342,0.0,0.0,80,0.00,,,0.00,Wunderground v.1.15,2013-03-15 11:10:00,
2013-03-15 07:15:00,10.8,5.8,30.15,NNW,342,0.0,0.0,80,0.00,,,0.00,Wunderground v.1.15,2013-03-15 11:15:00,
2013-03-15 07:20:00,10.6,5.9,30.15,NNW,342,0.0,0.0,81,0.00,,,0.00,Wunderground v.1.15,2013-03-15 11:20:00,
2013-03-15 07:25:00,10.4,5.7,30.15,NNW,342,0.0,0.0,81,0.00,,,0.00,Wunderground v.1.15,2013-03-15 11:25:00,
2013-03-15 07:30:00,10.8,6.4,30.15,NNW,342,0.0,0.0,82,0.00,,,0.00,Wunderground v.1.15,2013-03-15 11:30:00,
2013-03-15 07:35:00,11.8,7.4,30.15,NNW,342,0.0,0.0,82,0.00,,,0.00,Wunderground v.1.15,2013-03-15 11:35:00,
2013-03-15 07:40:00,12.6,7.6,30.15,NNW,342,0.0,0.0,80,0.00,,,0.00,Wunderground v.1.15,2013-03-15 11:40:00,
2013-03-15 07:45:00,13.5,7.9,30.14,NNW,342,0.0,0.0,78,0.00,,,0.00,Wunderground v.1.15,2013-03-15 11:45:00,
2013-03-15 07:50:00,14.3,8.1,30.14,ESE,109,0.0,0.0,76,0.00,,,0.00,Wunderground v.1.15,2013-03-15 11:50:00,
2013-03-15 07:55:00,14.8,8.0,30.14,SSW,203,0.0,1.0,74,0.00,,,0.00,Wunderground v.1.15,2013-03-15 11:55:00,
2013-03-15 08:00:00,15.2,7.8,30.14,SW,228,0.0,1.0,72,0.00,,,0.00,Wunderground v.1.15,2013-03-15 12:00:00,
2013-03-15 08:05:00,14.9,7.8,30.14,SW,229,0.0,1.0,73,0.00,,,0.00,Wunderground v.1.15,2013-03-15 12:05:00,
2013-03-15 08:10:00,14.9,7.5,30.14,West,280,0.0,0.0,72,0.00,,,0.00,Wunderground v.1.15,2013-03-15 12:10:00,
2013-03-15 08:15:00,14.8,6.8,30.14,West,269,0.0,1.0,70,0.00,,,0.00,Wunderground v.1.15,2013-03-15 12:15:00,
2013-03-15 08:20:00,15.1,7.1,30.14,WSW,253,1.0,1.0,70,0.00,,,0.00,Wunderground v.1.15,2013-03-15 12:20:00,
2013-03-15 08:25:00,15.3,6.9,30.14,ENE,64,0.0,2.0,69,0.00,,,0.00,Wunderground v.1.15,2013-03-15 12:25:00,
2013-03-15 08:30:00,15.5,7.5,30.14,East,84,1.0,2.0,70,0.00,,,0.00,Wunderground v.1.15,2013-03-15 12:30:00,
2013-03-15 08:35:00,15.9,7.8,30.14,WSW,239,2.0,2.0,70,0.00,,,0.00,Wunderground v.1.15,2013-03-15 12:35:00,
2013-03-15 08:40:00,16.2,7.5,30.14,WSW,253,2.0,2.0,68,0.00,,,0.00,Wunderground v.1.15,2013-03-15 12:40:00,
2013-03-15 08:45:00,16.6,7.2,30.14,NE,50,1.0,4.0,66,0.00,,,0.00,Wunderground v.1.15,2013-03-15 12:45:00,
2013-03-15 08:50:00,16.6,7.2,30.14,NE,51,1.0,1.0,66,0.00,,,0.00,Wunderground v.1.15,2013-03-15 12:50:00,
2013-03-15 08:55:00,17.2,7.8,30.13,SSE,163,0.0,2.0,66,0.00,,,0.00,Wunderground v.1.15,2013-03-15 12:55:00,
2013-03-15 09:00:00,17.9,8.5,30.13,West,265,0.0,1.0,66,0.00,,,0.00,Wunderground v.1.15,2013-03-15 13:00:00,
2013-03-15 09:05:00,18.5,8.7,30.13,SW,226,0.0,2.0,65,0.00,,,0.00,Wunderground v.1.15,2013-03-15 13:05:00,
2013-03-15 09:10:00,18.6,7.4,30.13,West,275,0.0,1.0,61,0.00,,,0.00,Wunderground v.1.15,2013-03-15 13:10:00,
2013-03-15 09:15:00,18.4,7.2,30.13,North,8,3.0,4.0,61,0.00,,,0.00,Wunderground v.1.15,2013-03-15 13:15:00,
2013-03-15 09:20:00,18.4,8.2,30.13,North,356,1.0,2.0,64,0.00,,,0.00,Wunderground v.1.15,2013-03-15 13:20:00,
2013-03-15 09:25:00,18.8,8.3,30.12,SE,133,1.0,7.0,63,0.00,,,0.00,Wunderground v.1.15,2013-03-15 13:25:00,
2013-03-15 09:30:00,18.8,7.6,30.11,NNE,16,2.0,2.0,61,0.00,,,0.00,Wunderground v.1.15,2013-03-15 13:30:00,
2013-03-15 09:35:00,19.2,7.9,30.11,North,358,0.0,5.0,61,0.00,,,0.00,Wunderground v.1.15,2013-03-15 13:35:00,
2013-03-15 09:40:00,19.6,9.0,30.11,WNW,284,2.0,4.0,63,0.00,,,0.00,Wunderground v.1.15,2013-03-15 13:40:00,
2013-03-15 09:45:00,19.7,8.4,30.11,NNE,30,1.0,4.0,61,0.00,,,0.00,Wunderground v.1.15,2013-03-15 13:45:00,
2013-03-15 09:50:00,19.8,8.5,30.11,NNW,338,2.0,3.0,61,0.00,,,0.00,Wunderground v.1.15,2013-03-15 13:50:00,
2013-03-15 09:55:00,20.1,9.2,30.10,NW,319,1.0,4.0,62,0.00,,,0.00,Wunderground v.1.15,2013-03-15 13:55:00,
2013-03-15 10:00:00,20.7,9.0,30.10,SSW,207,2.0,2.0,60,0.00,,,0.00,Wunderground v.1.15,2013-03-15 14:00:00,
2013-03-15 10:05:00,21.3,9.2,30.10,WNW,295,1.0,3.0,59,0.00,,,0.00,Wunderground v.1.15,2013-03-15 14:05:00,
2013-03-15 10:10:00,21.6,8.3,30.09,West,277,2.0,2.0,56,0.00,,,0.00,Wunderground v.1.15,2013-03-15 14:10:00,
2013-03-15 10:15:00,21.7,8.4,30.09,WSW,256,0.0,4.0,56,0.00,,,0.00,Wunderground v.1.15,2013-03-15 14:15:00,
2013-03-15 10:20:00,21.9,8.6,30.09,West,270,1.0,2.0,56,0.00,,,0.00,Wunderground v.1.15,2013-03-15 14:20:00,
2013-03-15 10:25:00,21.7,8.0,30.09,ENE,64,1.0,4.0,55,0.00,,,0.00,Wunderground v.1.15,2013-03-15 14:25:00,
2013-03-15 10:30:00,21.7,9.6,30.08,ENE,65,4.0,5.0,59,0.00,,,0.00,Wunderground v.1.15,2013-03-15 14:30:00,
2013-03-15 10:35:00,21.6,9.5,30.08,NNE,30,2.0,6.0,59,0.00,,,0.00,Wunderground v.1.15,2013-03-15 14:35:00,
2013-03-15 10:40:00,21.5,9.4,30.08,East,93,1.0,2.0,59,0.00,,,0.00,Wunderground v.1.15,2013-03-15 14:40:00,
2013-03-15 10:45:00,22.3,8.2,30.08,West,280,0.0,3.0,54,0.00,,,0.00,Wunderground v.1.15,2013-03-15 14:45:00,
2013-03-15 10:50:00,22.5,7.5,30.08,SW,220,3.0,3.0,52,0.00,,,0.00,Wunderground v.1.15,2013-03-15 14:50:00,
2013-03-15 10:55:00,22.7,8.5,30.07,NNW,341,0.0,5.0,54,0.00,,,0.00,Wunderground v.1.15,2013-03-15 14:55:00,
2013-03-15 11:00:00,22.6,7.6,30.07,East,82,2.0,2.0,52,0.00,,,0.00,Wunderground v.1.15,2013-03-15 15:00:00,
2013-03-15 11:05:00,22.2,8.5,30.07,NNE,28,0.0,6.0,55,0.00,,,0.00,Wunderground v.1.15,2013-03-15 15:05:00,
2013-03-15 11:10:00,22.4,7.4,30.06,SSW,212,1.0,2.0,52,0.00,,,0.00,Wunderground v.1.15,2013-03-15 15:10:00,
2013-03-15 11:15:00,23.7,10.7,30.06,South,170,1.0,2.0,57,0.00,,,0.00,Wunderground v.1.15,2013-03-15 15:15:00,
2013-03-15 11:20:00,24.7,10.0,30.06,WSW,240,2.0,4.0,53,0.00,,,0.00,Wunderground v.1.15,2013-03-15 15:20:00,
2013-03-15 11:25:00,25.2,10.4,30.05,SSE,150,2.0,5.0,53,0.00,,,0.00,Wunderground v.1.15,2013-03-15 15:25:00,
2013-03-15 11:30:00,25.4,9.3,30.05,SE,145,2.0,3.0,50,0.00,,,0.00,Wunderground v.1.15,2013-03-15 15:30:00,
2013-03-15 11:35:00,25.7,8.2,30.04,SSW,210,3.0,4.0,47,0.00,,,0.00,Wunderground v.1.15,2013-03-15 15:35:00,
2013-03-15 11:40:00,25.9,7.4,30.04,SE,145,3.0,3.0,45,0.00,,,0.00,Wunderground v.1.15,2013-03-15 15:40:00,
2013-03-15 11:45:00,26.1,8.1,30.03,South,191,1.0,3.0,46,0.00,,,0.00,Wunderground v.1.15,2013-03-15 15:45:00,
2013-03-15 11:50:00,26.1,8.1,30.03,ENE,60,2.0,2.0,46,0.00,,,0.00,Wunderground v.1.15,2013-03-15 15:50:00,
2013-03-15 11:55:00,26.0,10.3,30.03,NE,36,0.0,3.0,51,0.00,,,0.00,Wunderground v.1.15,2013-03-15 15:55:00,
2013-03-15 12:00:00,26.2,8.7,30.02,ENE,76,3.0,3.0,47,0.00,,,0.00,Wunderground v.1.15,2013-03-15 16:00:00,
2013-03-15 12:05:00,26.1,6.1,30.02,NE,49,1.0,5.0,42,0.00,,,0.00,Wunderground v.1.15,2013-03-15 16:05:00,
2013-03-15 12:10:00,25.9,10.7,30.02,East,89,1.0,3.0,52,0.00,,,0.00,Wunderground v.1.15,2013-03-15 16:10:00,
2013-03-15 12:15:00,25.8,9.2,30.01,East,99,2.0,7.0,49,0.00,,,0.00,Wunderground v.1.15,2013-03-15 16:15:00,
2013-03-15 12:20:00,25.6,10.4,30.01,ENE,75,6.0,7.0,52,0.00,,,0.00,Wunderground v.1.15,2013-03-15 16:20:00,
2013-03-15 12:25:00,25.8,9.2,30.01,NE,36,2.0,7.0,49,0.00,,,0.00,Wunderground v.1.15,2013-03-15 16:25:00,
2013-03-15 12:30:00,26.2,8.7,30.00,ENE,73,0.0,2.0,47,0.00,,,0.00,Wunderground v.1.15,2013-03-15 16:30:00,
2013-03-15 12:35:00,26.8,9.2,30.00,ESE,105,1.0,10.0,47,0.00,,,0.00,Wunderground v.1.15,2013-03-15 16:35:00,
2013-03-15 12:40:00,27.7,9.1,30.00,SW,231,0.0,2.0,45,0.00,,,0.00,Wunderground v.1.15,2013-03-15 16:40:00,
2013-03-15 12:45:00,28.9,11.2,29.99,SSW,207,3.0,4.0,47,0.00,,,0.00,Wunderground v.1.15,2013-03-15 16:45:00,
2013-03-15 12:50:00,29.6,8.7,29.99,West,259,3.0,4.0,41,0.00,,,0.00,Wunderground v.1.15,2013-03-15 16:50:00,
2013-03-15 12:55:00,30.4,10.5,29.99,ESE,116,4.0,6.0,43,0.00,,,0.00,Wunderground v.1.15,2013-03-15 16:55:00,
2013-03-15 13:00:00,29.7,7.7,29.98,ENE,72,0.0,3.0,39,0.00,,,0.00,Wunderground v.1.15,2013-03-15 17:00:00,
2013-03-15 13:05:00,30.2,8.2,29.98,WSW,243,4.0,9.0,39,0.00,,,0.00,Wunderground v.1.15,2013-03-15 17:05:00,
2013-03-15 13:10:00,31.0,11.6,29.97,NE,56,1.0,2.0,44,0.00,,,0.00,Wunderground v.1.15,2013-03-15 17:10:00,
2013-03-15 13:15:00,31.4,10.4,29.97,ENE,63,1.0,6.0,41,0.00,,,0.00,Wunderground v.1.15,2013-03-15 17:15:00,
2013-03-15 13:20:00,32.4,12.4,29.97,WNW,302,2.0,7.0,43,0.00,,,0.00,Wunderground v.1.15,2013-03-15 17:20:00,
2013-03-15 13:25:00,33.4,12.7,29.96,SW,229,7.0,8.0,42,0.00,,,0.00,Wunderground v.1.15,2013-03-15 17:25:00,
2013-03-15 13:30:00,32.9,11.2,29.96,NE,44,2.0,3.0,40,0.00,,,0.00,Wunderground v.1.15,2013-03-15 17:30:00,
2013-03-15 13:35:00,31.8,10.2,29.96,West,281,0.0,4.0,40,0.00,,,0.00,Wunderground v.1.15,2013-03-15 17:35:00,
2013-03-15 13:40:00,31.0,11.1,29.96,SW,214,5.0,6.0,43,0.00,,,0.00,Wunderground v.1.15,2013-03-15 17:40:00,
2013-03-15 13:45:00,31.3,9.7,29.96,SW,236,1.0,6.0,40,0.00,,,0.00,Wunderground v.1.15,2013-03-15 17:45:00,
2013-03-15 13:50:00,31.3,11.4,29.95,SSW,193,6.0,6.0,43,0.00,,,0.00,Wunderground v.1.15,2013-03-15 17:50:00,
2013-03-15 13:55:00,30.8,11.4,29.95,WSW,241,0.0,7.0,44,0.00,,,0.00,Wunderground v.1.15,2013-03-15 17:55:00,
2013-03-15 14:00:00,30.9,12.0,29.94,SSW,201,3.0,5.0,45,0.00,,,0.00,Wunderground v.1.15,2013-03-15 18:00:00,
2013-03-15 14:05:00,31.3,14.3,29.94,SW,218,2.0,6.0,49,0.00,,,0.00,Wunderground v.1.15,2013-03-15 18:05:00,
2013-03-15 14:10:00,31.2,12.8,29.94,SW,215,2.0,5.0,46,0.00,,,0.00,Wunderground v.1.15,2013-03-15 18:10:00,
2013-03-15 14:15:00,30.8,15.2,29.94,SW,232,5.0,7.0,52,0.00,,,0.00,Wunderground v.1.15,2013-03-15 18:15:00,
2013-03-15 14:20:00,30.6,14.1,29.94,SSW,204,3.0,5.0,50,0.00,,,0.00,Wunderground v.1.15,2013-03-15 18:20:00,
2013-03-15 14:25:00,30.5,14.5,29.93,South,185,4.0,6.0,51,0.00,,,0.00,Wunderground v.1.15,2013-03-15 18:25:00,
2013-03-15 14:30:00,30.4,15.3,29.93,SW,236,3.0,3.0,53,0.00,,,0.00,Wunderground v.1.15,2013-03-15 18:30:00,
2013-03-15 14:35:00,30.5,15.8,29.93,SW,214,4.0,6.0,54,0.00,,,0.00,Wunderground v.1.15,2013-03-15 18:35:00,
2013-03-15 14:40:00,30.2,14.7,29.93,SE,131,2.0,7.0,52,0.00,,,0.00,Wunderground v.1.15,2013-03-15 18:40:00,
2013-03-15 14:45:00,29.8,15.2,29.92,South,177,1.0,7.0,54,0.00,,,0.00,Wunderground v.1.15,2013-03-15 18:45:00,
2013-03-15 14:50:00,30.5,17.5,29.92,SSW,201,0.0,2.0,58,0.00,,,0.00,Wunderground v.1.15,2013-03-15 18:50:00,
2013-03-15 14:55:00,31.0,15.8,29.92,SSW,195,1.0,2.0,53,0.00,,,0.00,Wunderground v.1.15,2013-03-15 18:55:00,
2013-03-15 15:00:00,30.6,15.0,29.92,SSW,204,4.0,9.0,52,0.00,,,0.00,Wunderground v.1.15,2013-03-15 19:00:00,
2013-03-15 15:05:00,30.3,16.5,29.92,South,186,4.0,9.0,56,0.00,,,0.00,Wunderground v.1.15,2013-03-15 19:05:00,
2013-03-15 15:10:00,30.5,16.7,29.91,SW,231,4.0,7.0,56,0.00,,,0.00,Wunderground v.1.15,2013-03-15 19:10:00,
2013-03-15 15:15:00,30.2,16.8,29.91,SW,231,4.0,9.0,57,0.00,,,0.00,Wunderground v.1.15,2013-03-15 19:15:00,
2013-03-15 15:20:00,30.1,17.1,29.91,SE,141,0.0,3.0,58,0.00,,,0.00,Wunderground v.1.15,2013-03-15 19:20:00,
2013-03-15 15:25:00,30.5,18.3,29.90,ESE,111,3.0,4.0,60,0.00,,,0.00,Wunderground v.1.15,2013-03-15 19:25:00,
2013-03-15 15:30:00,30.8,17.7,29.90,WSW,250,2.0,4.0,58,0.00,,,0.00,Wunderground v.1.15,2013-03-15 19:30:00,
2013-03-15 15:35:00,30.9,16.6,29.90,SSW,212,3.0,4.0,55,0.00,,,0.00,Wunderground v.1.15,2013-03-15 19:35:00,
2013-03-15 15:40:00,31.0,17.5,29.89,East,89,1.0,2.0,57,0.00,,,0.00,Wunderground v.1.15,2013-03-15 19:40:00,
2013-03-15 15:45:00,30.8,16.5,29.89,NE,44,0.0,3.0,55,0.00,,,0.00,Wunderground v.1.15,2013-03-15 19:45:00,
2013-03-15 15:50:00,31.0,16.3,29.89,South,191,0.0,1.0,54,0.00,,,0.00,Wunderground v.1.15,2013-03-15 19:50:00,
2013-03-15 15:55:00,31.3,17.8,29.89,SW,236,2.0,3.0,57,0.00,,,0.00,Wunderground v.1.15,2013-03-15 19:55:00,
2013-03-15 16:00:00,31.2,16.9,29.89,West,266,2.0,2.0,55,0.00,,,0.00,Wunderground v.1.15,2013-03-15 20:00:00,
2013-03-15 16:05:00,31.4,16.2,29.89,SE,146,0.0,3.0,53,0.00,,,0.00,Wunderground v.1.15,2013-03-15 20:05:00,
2013-03-15 16:10:00,31.6,16.4,29.89,ESE,105,0.0,3.0,53,0.00,,,0.00,Wunderground v.1.15,2013-03-15 20:10:00,
2013-03-15 16:15:00,31.5,16.7,29.89,SE,132,1.0,7.0,54,0.00,,,0.00,Wunderground v.1.15,2013-03-15 20:15:00,
2013-03-15 16:20:00,31.5,15.9,29.89,South,171,4.0,5.0,52,0.00,,,0.00,Wunderground v.1.15,2013-03-15 20:20:00,
2013-03-15 16:25:00,31.0,15.4,29.89,SSW,193,0.0,11.0,52,0.00,,,0.00,Wunderground v.1.15,2013-03-15 20:25:00,
2013-03-15 16:30:00,31.1,16.4,29.89,SSW,208,0.0,2.0,54,0.00,,,0.00,Wunderground v.1.15,2013-03-15 20:30:00,
2013-03-15 16:35:00,31.1,17.6,29.89,WSW,244,3.0,6.0,57,0.00,,,0.00,Wunderground v.1.15,2013-03-15 20:35:00,
2013-03-15 16:40:00,30.9,17.8,29.89,WSW,245,0.0,3.0,58,0.00,,,0.00,Wunderground v.1.15,2013-03-15 20:40:00,
2013-03-15 16:45:00,30.5,18.3,29.89,WSW,252,4.0,5.0,60,0.00,,,0.00,Wunderground v.1.15,2013-03-15 20:45:00,
2013-03-15 16:50:00,30.2,19.1,29.89,SW,236,5.0,5.0,63,0.00,,,0.00,Wunderground v.1.15,2013-03-15 20:50:00,
2013-03-15 16:55:00,30.0,20.0,29.89,WSW,242,2.0,7.0,66,0.00,,,0.00,Wunderground v.1.15,2013-03-15 20:55:00,
2013-03-15 17:00:00,29.8,20.9,29.89,WSW,243,2.0,6.0,69,0.00,,,0.00,Wunderground v.1.15,2013-03-15 21:00:00,
2013-03-15 17:05:00,29.3,21.7,29.89,SW,232,3.0,6.0,73,0.00,,,0.00,Wunderground v.1.15,2013-03-15 21:05:00,
2013-03-15 17:10:00,28.8,22.2,29.90,SSE,167,5.0,5.0,76,0.00,,,0.00,Wunderground v.1.15,2013-03-15 21:10:00,
2013-03-15 17:15:00,28.2,22.5,29.89,SW,231,1.0,6.0,79,0.00,,,0.00,Wunderground v.1.15,2013-03-15 21:15:00,
2013-03-15 17:20:00,27.8,23.0,29.89,South,187,1.0,3.0,82,0.00,,,0.00,Wunderground v.1.15,2013-03-15 21:20:00,
2013-03-15 17:26:00,27.7,23.5,29.89,SW,222,2.0,3.0,84,0.00,,,0.00,Wunderground v.1.15,2013-03-15 21:26:00,
2013-03-15 17:31:00,27.6,23.4,29.89,SSW,193,0.0,1.0,84,0.00,,,0.00,Wunderground v.1.15,2013-03-15 21:31:00,
2013-03-15 17:36:00,27.6,23.7,29.89,South,188,1.0,2.0,85,0.00,,,0.00,Wunderground v.1.15,2013-03-15 21:36:00,
2013-03-15 17:41:00,27.7,23.8,29.89,ESE,105,1.0,1.0,85,0.00,,,0.00,Wunderground v.1.15,2013-03-15 21:41:00,
2013-03-15 17:45:00,27.5,23.9,29.89,East,96,1.0,2.0,86,0.00,,,0.00,Wunderground v.1.15,2013-03-15 21:45:00,
2013-03-15 17:50:00,27.2,23.8,29.89,ESE,103,1.0,2.0,87,0.00,,,0.00,Wunderground v.1.15,2013-03-15 21:50:00,
2013-03-15 17:56:00,27.1,23.7,29.89,East,86,0.0,2.0,87,0.00,,,0.00,Wunderground v.1.15,2013-03-15 21:56:00,
2013-03-15 18:01:00,27.1,24.0,29.89,East,96,0.0,2.0,88,0.00,,,0.00,Wunderground v.1.15,2013-03-15 22:01:00,
2013-03-15 18:06:00,27.1,24.0,29.89,ENE,77,2.0,2.0,88,0.00,,,0.00,Wunderground v.1.15,2013-03-15 22:06:00,
2013-03-15 18:11:00,27.1,24.0,29.89,ESE,107,0.0,1.0,88,0.00,,,0.00,Wunderground v.1.15,2013-03-15 22:11:00,
2013-03-15 18:17:00,27.1,24.3,29.89,East,94,0.0,1.0,89,0.00,,,0.00,Wunderground v.1.15,2013-03-15 22:17:00,
2013-03-15 18:22:00,27.1,24.3,29.89,East,93,1.0,1.0,89,0.00,,,0.00,Wunderground v.1.15,2013-03-15 22:22:00,
2013-03-15 18:27:00,27.1,24.6,29.89,East,93,0.0,1.0,90,0.00,,,0.00,Wunderground v.1.15,2013-03-15 22:27:00,
2013-03-15 18:32:00,27.1,24.6,29.89,SSE,165,0.0,0.0,90,0.00,,,0.00,Wunderground v.1.15,2013-03-15 22:32:00,
2013-03-15 18:37:00,27.1,24.6,29.89,ENE,64,0.0,1.0,90,0.00,,,0.00,Wunderground v.1.15,2013-03-15 22:37:00,
2013-03-15 18:42:00,26.9,24.4,29.89,ENE,77,0.0,1.0,90,0.00,,,0.00,Wunderground v.1.15,2013-03-15 22:42:00,
2013-03-15 18:47:00,26.8,24.3,29.89,ESE,103,0.0,1.0,90,0.00,,,0.00,Wunderground v.1.15,2013-03-15 22:47:00,
2013-03-15 18:52:00,26.8,24.3,29.89,ESE,104,0.0,0.0,90,0.00,,,0.00,Wunderground v.1.15,2013-03-15 22:52:00,
2013-03-15 18:57:00,26.7,24.2,29.89,ESE,103,0.0,0.0,90,0.00,,,0.00,Wunderground v.1.15,2013-03-15 22:57:00,
2013-03-15 19:02:00,26.7,24.2,29.89,ESE,108,0.0,1.0,90,0.00,,,0.00,Wunderground v.1.15,2013-03-15 23:02:00,
2013-03-15 19:07:00,26.5,24.2,29.89,East,95,0.0,1.0,91,0.00,,,0.00,Wunderground v.1.15,2013-03-15 23:07:00,
2013-03-15 19:12:00,26.4,24.1,29.89,East,96,0.0,0.0,91,0.00,,,0.00,Wunderground v.1.15,2013-03-15 23:12:00,
2013-03-15 19:17:00,26.4,24.1,29.89,ESE,113,0.0,1.0,91,0.00,,,0.00,Wunderground v.1.15,2013-03-15 23:17:00,
2013-03-15 19:22:00,26.3,24.0,29.90,ESE,113,0.0,0.0,91,0.00,,,0.00,Wunderground v.1.15,2013-03-15 23:22:00,
2013-03-15 19:27:00,26.3,24.0,29.90,SSE,160,0.0,1.0,91,0.00,,,0.00,Wunderground v.1.15,2013-03-15 23:27:00,
2013-03-15 19:32:00,26.3,24.3,29.90,ESE,103,0.0,0.0,92,0.00,,,0.00,Wunderground v.1.15,2013-03-15 23:32:00,
2013-03-15 19:37:00,26.2,24.2,29.90,ESE,103,0.0,0.0,92,0.00,,,0.00,Wunderground v.1.15,2013-03-15 23:37:00,
2013-03-15 19:43:00,26.2,24.2,29.90,ESE,112,0.0,0.0,92,0.00,,,0.00,Wunderground v.1.15,2013-03-15 23:43:00,
2013-03-15 19:48:00,26.2,24.2,29.90,SE,125,0.0,1.0,92,0.00,,,0.00,Wunderground v.1.15,2013-03-15 23:48:00,
2013-03-15 19:53:00,26.2,24.2,29.90,SE,126,0.0,0.0,92,0.00,,,0.00,Wunderground v.1.15,2013-03-15 23:53:00,
2013-03-15 19:58:00,26.2,24.2,29.90,SE,125,0.0,0.0,92,0.00,,,0.00,Wunderground v.1.15,2013-03-15 23:58:00,
2013-03-15 20:03:00,26.2,24.2,29.91,SE,125,0.0,0.0,92,0.00,,,0.00,Wunderground v.1.15,2013-03-16 00:03:00,
2013-03-15 20:08:00,26.3,24.3,29.91,SE,126,0.0,0.0,92,0.00,,,0.00,Wunderground v.1.15,2013-03-16 00:08:00,
2013-03-15 20:13:00,26.3,24.3,29.91,SE,126,0.0,0.0,92,0.00,,,0.00,Wunderground v.1.15,2013-03-16 00:13:00,
2013-03-15 20:18:00,26.4,24.7,29.91,SE,126,0.0,0.0,93,0.00,,,0.00,Wunderground v.1.15,2013-03-16 00:18:00,
2013-03-15 20:23:00,26.4,24.7,29.91,SE,126,0.0,0.0,93,0.00,,,0.00,Wunderground v.1.15,2013-03-16 00:23:00,
2013-03-15 20:28:00,26.4,24.7,29.91,East,84,0.0,1.0,93,0.00,,,0.00,Wunderground v.1.15,2013-03-16 00:28:00,
2013-03-15 20:33:00,26.3,24.3,29.91,West,263,0.0,0.0,92,0.00,,,0.00,Wunderground v.1.15,2013-03-16 00:33:00,
2013-03-15 20:38:00,26.4,24.1,29.91,NW,310,0.0,2.0,91,0.00,,,0.00,Wunderground v.1.15,2013-03-16 00:38:00,
2013-03-15 20:43:00,26.3,23.8,29.92,ESE,103,1.0,1.0,90,0.00,,,0.00,Wunderground v.1.15,2013-03-16 00:43:00,
2013-03-15 20:48:00,26.3,23.5,29.92,NW,316,0.0,3.0,89,0.00,,,0.00,Wunderground v.1.15,2013-03-16 00:48:00,
2013-03-15 20:53:00,26.3,23.2,29.92,SE,135,2.0,3.0,88,0.00,,,0.00,Wunderground v.1.15,2013-03-16 00:53:00,
2013-03-15 20:58:00,26.2,23.4,29.92,East,80,0.0,3.0,89,0.00,,,0.00,Wunderground v.1.15,2013-03-16 00:58:00,
2013-03-15 21:04:00,26.1,22.8,29.92,ENE,74,1.0,3.0,87,0.00,,,0.00,Wunderground v.1.15,2013-03-16 01:04:00,
2013-03-15 21:09:00,26.2,22.3,29.92,NE,51,2.0,6.0,85,0.00,,,0.00,Wunderground v.1.15,2013-03-16 01:09:00,
2013-03-15 21:14:00,26.0,22.1,29.93,West,271,0.0,1.0,85,0.00,,,0.00,Wunderground v.1.15,2013-03-16 01:14:00,
2013-03-15 21:19:00,25.8,21.9,29.93,East,100,0.0,3.0,85,0.00,,,0.00,Wunderground v.1.15,2013-03-16 01:19:00,
2013-03-15 21:24:00,25.6,21.4,29.93,North,352,1.0,3.0,84,0.00,,,0.00,Wunderground v.1.15,2013-03-16 01:24:00,
2013-03-15 21:29:00,25.4,21.2,29.93,East,93,1.0,3.0,84,0.00,,,0.00,Wunderground v.1.15,2013-03-16 01:29:00,
2013-03-15 21:34:00,25.3,20.9,29.93,East,98,1.0,3.0,83,0.00,,,0.00,Wunderground v.1.15,2013-03-16 01:34:00,
2013-03-15 21:39:00,25.0,20.6,29.93,WNW,295,2.0,3.0,83,0.00,,,0.00,Wunderground v.1.15,2013-03-16 01:39:00,
2013-03-15 21:44:00,24.9,20.5,29.93,NNW,333,0.0,3.0,83,0.00,,,0.00,Wunderground v.1.15,2013-03-16 01:44:00,
2013-03-15 21:49:00,24.7,20.0,29.93,North,11,0.0,3.0,82,0.00,,,0.00,Wunderground v.1.15,2013-03-16 01:49:00,
2013-03-15 21:54:00,24.5,20.6,29.94,ESE,106,0.0,1.0,85,0.00,,,0.00,Wunderground v.1.15,2013-03-16 01:54:00,
2013-03-15 21:59:00,24.2,19.8,29.94,East,94,0.0,3.0,83,0.00,,,0.00,Wunderground v.1.15,2013-03-16 01:59:00,
2013-03-15 22:04:00,24.1,19.7,29.94,ESE,117,0.0,3.0,83,0.00,,,0.00,Wunderground v.1.15,2013-03-16 02:04:00,
2013-03-15 22:09:00,23.9,19.5,29.95,East,98,0.0,3.0,83,0.00,,,0.00,Wunderground v.1.15,2013-03-16 02:09:00,
2013-03-15 22:14:00,23.6,19.2,29.95,WNW,287,1.0,2.0,83,0.00,,,0.00,Wunderground v.1.15,2013-03-16 02:14:00,
2013-03-15 22:19:00,23.7,19.6,29.95,West,267,0.0,2.0,84,0.00,,,0.00,Wunderground v.1.15,2013-03-16 02:19:00,
2013-03-15 22:24:00,23.6,19.5,29.95,West,264,0.0,1.0,84,0.00,,,0.00,Wunderground v.1.15,2013-03-16 02:24:00,
2013-03-15 22:29:00,23.5,19.1,29.95,NNE,33,1.0,3.0,83,0.00,,,0.00,Wunderground v.1.15,2013-03-16 02:29:00,
2013-03-15 22:34:00,23.6,18.9,29.96,North,5,2.0,4.0,82,0.00,,,0.00,Wunderground v.1.15,2013-03-16 02:34:00,
2013-03-15 22:39:00,23.5,18.8,29.96,NE,37,1.0,5.0,82,0.00,,,0.00,Wunderground v.1.15,2013-03-16 02:39:00,
2013-03-15 22:44:00,23.4,18.4,29.96,NE,50,2.0,4.0,81,0.00,,,0.00,Wunderground v.1.15,2013-03-16 02:44:00,
2013-03-15 22:49:00,23.3,18.3,29.96,WNW,290,0.0,4.0,81,0.00,,,0.00,Wunderground v.1.15,2013-03-16 02:49:00,
2013-03-15 22:54:00,23.2,17.9,29.96,NNE,23,0.0,2.0,80,0.00,,,0.00,Wunderground v.1.15,2013-03-16 02:54:00,
2013-03-15 22:59:00,23.0,17.5,29.97,NE,56,0.0,2.0,79,0.00,,,0.00,Wunderground v.1.15,2013-03-16 02:59:00,
2013-03-15 23:04:00,22.7,17.5,29.97,NNE,23,0.0,1.0,80,0.00,,,0.00,Wunderground v.1.15,2013-03-16 03:04:00,
2013-03-15 23:09:00,22.3,17.1,29.97,NNE,23,0.0,1.0,80,0.00,,,0.00,Wunderground v.1.15,2013-03-16 03:09:00,
2013-03-15 23:14:00,22.1,17.2,29.97,NNE,24,0.0,0.0,81,0.00,,,0.00,Wunderground v.1.15,2013-03-16 03:14:00,
2013-03-15 23:19:00,22.1,17.2,29.97,NNE,13,0.0,1.0,81,0.00,,,0.00,Wunderground v.1.15,2013-03-16 03:19:00,
2013-03-15 23:24:00,21.9,17.2,29.98,North,358,0.0,0.0,82,0.00,,,0.00,Wunderground v.1.15,2013-03-16 03:24:00,
2013-03-15 23:29:00,21.7,17.6,29.98,North,359,0.0,0.0,84,0.00,,,0.00,Wunderground v.1.15,2013-03-16 03:29:00,
2013-03-15 23:34:00,21.6,17.8,29.98,NW,306,0.0,1.0,85,0.00,,,0.00,Wunderground v.1.15,2013-03-16 03:34:00,
2013-03-15 23:39:00,21.7,17.9,29.98,WNW,283,0.0,3.0,85,0.00,,,0.00,Wunderground v.1.15,2013-03-16 03:39:00,
2013-03-15 23:44:00,21.6,18.3,29.98,WNW,283,0.0,0.0,87,0.00,,,0.00,Wunderground v.1.15,2013-03-16 03:44:00,
2013-03-15 23:49:00,21.4,18.1,29.98,SSE,159,0.0,0.0,87,0.00,,,0.00,Wunderground v.1.15,2013-03-16 03:49:00,
2013-03-15 23:54:00,21.4,18.4,29.99,SSE,156,0.0,0.0,88,0.00,,,0.00,Wunderground v.1.15,2013-03-16 03:54:00,
2013-03-15 23:59:00,21.5,18.5,29.99,SSE,157,0.0,0.0,88,0.00,,,0.00,Wunderground v.1.15,2013-03-16 03:59:00,